map of BUS home
Great Circle Mapper logo
BUS - Airport
Location
City:  Batumi, Georgia
ICAO / IATA:UGSB / BUS

Details
Type:Airport (Aerodrome, Airfield)
Latitude:4136'37"N (41.610278)
Longitude:4135'59"E (41.599694)
Datum:WGS 1984
Elevation:105 ft (32 m)
Runways:1
Longest:7325 × 150 ft (2233 × 45.5 m), paved

Time
Time Zone:UTC+3 (DST+4)

Weather
METAR:UGSB 011330Z 28004KT 9999 FEW026 28/21 Q1011 R13/CLRD70 NOSIG
TAF:UGSB 010500Z 0106/0206 VRB03KT 9999 FEW025 SCT070 TX28/0112Z TN22/0201Z
TEMPO 0109/0115 26010KT
TEMPO 0120/0205 13012KT

Related Locations
Nearby:
Farthest:GMR: 11137 mi / 17924 km
Mangareva [Totegegie], Gambier Islands, PF

Find:

   beyond  
but within

Other Information
Maps:
NOTAMs:
Links:
Sources:

  
flag of Georgia   

Sectional Chart

Flight Planning
at skyvector.com

Satellite Image

Google Maps Satellite View

 

Copyright © 2004-2014 Karl L. Swartz. All rights reserved.
The Great Circle Mapper name and logo are trademarks of the Great Circle Mapper.
All other trademarks mentioned herein belong to their respective owners.
Please see credits for attibutions and further copyright information.

  Follow gcmap on Facebook Follow gcmap on Twitter

hCard Microformat

Geo Microformat